Regional Weather Roundup
Issued by NWS Midland/Odessa, TX

Home | Current Version | Previous Version | Text Only | Print | Product List | Glossary On
Versions: 1 2 3 4 5 6 7 8 9 10 11 12 13 14 15 16 17 18 19 20 21 22 23 24 25 26 27 28 29 30 31 32 33 34 35 36 37 38 39 40 41 42 43 44 45 46 47 48 49 50
000
ASUS44 KMAF 181101
RWRMAF
MIDLAND AREA WEATHER ROUNDUP
NATIONAL WEATHER SERVICE MIDLAND TX
600 AM CDT FRI AUG 18 2017

...IN SOUTHWEST TEXAS AND SOUTHEAST NEW MEXICO...

CITY           SKY/WX    TMP DP  RH WIND       PRES   REMARKS
ALPINE         CLOUDY    71  60  69 SW8       30.19S
ANDREWS        FAIR      69  65  86 CALM      30.08R
ARTESIA        CLOUDY    68  64  88 SE6       30.08R
BIG SPRING     CLEAR     69  66  92 CALM      30.07S
CARLSBAD       CLOUDY    67  66  97 SW3       30.05S
DRYDEN         NOT AVBL
FORT STOCKTON  CLOUDY    74  65  73 SE6       30.05R
GUAD PASS      CLEAR     67  55  65 SW10      30.21S
HOBBS          CLEAR     66  63  88 CALM      30.09F
MARFA          CLOUDY    64  62  93 CALM      30.19R
MIDLAND AIRPK  CLEAR     73  64  73 S3        30.07R
MIDLAND INTL   CLEAR     72  64  76 SE5       30.05S
ODESSA         CLEAR     72  64  76 S6        30.07R
PECOS          PTCLDY    70  64  81 CALM      30.03R
PRESIDIO       FAIR      74  67  80 CALM      30.07S
SEMINOLE       CLEAR     67  63  87 CALM      30.09S
SNYDER         PTCLDY    69  68  94 S7        30.06R
WINK           CLEAR     69  66  90 E5        30.03S
$$
...OTHER STATIONS IN TEXAS...

CITY           SKY/WX    TMP DP  RH WIND       PRES   REMARKS
ABILENE        CLOUDY    73  69  87 SE6       30.02S
AMARILLO       CLOUDY    72  65  78 VRB7      30.13S
AUSTIN         MOCLDY    78  75  90 S6        30.00S
BROWNSVILLE    CLEAR     79  79 100 CALM      29.97S
CORPUS CHRISTI PTCLDY    78  77  96 SE3       29.98S
DALLAS FTW     CLOUDY    77  72  84 S3        29.97R
DEL RIO        CLEAR     79  72  79 E10       29.96R
EL PASO        PTCLDY    74  61  63 SE6       30.08S
HOUSTON INT    CLEAR     81  76  84 S5        30.00R
LUBBOCK        CLEAR     69  65  86 W7        30.07S
SAN ANGELO     CLOUDY    72  68  87 SE5       30.02R
SAN ANTONIO    CLOUDY    78  73  84 S9        30.02S
WACO           CLOUDY    74  71  91 S6        29.99R
WICHITA FALLS  NOT AVBL
$$
...OTHER LOCATIONS IN NEW MEXICO...

CITY           SKY/WX    TMP DP  RH WIND       PRES   REMARKS
ALAMOGORDO     PTCLDY    72  54  53 SW7       30.12R
ALBUQUERQUE    PTCLDY    70  39  32 NE6       30.17R
CANNON AFB     CLEAR     65  65 100 CALM      30.14S
CLOVIS         CLEAR     64  62  93 SW6       30.13S
HOLLOMAN AFB   CLEAR     73  56  53 S8        30.11S
ROSWELL        CLEAR     68  61  78 S6        30.07F
RUIDOSO        CLOUDY    61  45  55 NW3       30.31R
SANTA FE       CLOUDY    60  40  47 N3        30.25R
TRUTH OR CONSE MOCLDY    72  41  32 SW7       30.13R
TUCUMCARI      PTCLDY    72  60  66 CALM      30.10F
$$




USA.gov is the U.S. government's official web portal to all federal, state and local government web resources and services.